User: anonymous   Login
Location: Unspecified
(0.0000°N, 0.0000°E)
Time: 09:17:25
(UTC+00:00)
Language:

COSMOS-2414 - Orbit

View from above orbital plane
View from above orbital plane
View from above satellite
View from above satellite

Ground track
Ground track

The orbit data is extracted from the following two-line orbital elements,

1 28521U 05002A   17084.20212920 +.00000016 +00000-0 +19279-6 0  9994
2 28521 082.9476 072.3000 0038971 217.2438 142.6026 13.87583086616635
Epoch (UTC): 25 March 2017 04:51:03
Eccentricity: 0.0038971
inclination: 82.9476°
perigee height: 908 km
apogee height: 965 km
right ascension of ascending node: 72.3000°
argument of perigee: 217.2438°
revolutions per day: 13.87583086
mean anomaly at epoch: 142.6026°
orbit number at epoch: 61663

The dashed part of the orbit path shows where the satellite is in the earth's shadow,  

DLR